818  
ASUS41 KCTP 170310  
RWRCTP  
 
REGIONAL WEATHER ROUNDUP  
NATIONAL WEATHER SERVICE STATE COLLEGE PA  
1100 PM EDT TUE OCT 16 2018  
 
NOTE: "FAIR" INDICATES FEW OR NO CLOUDS BELOW 12,000 FEET WITH NO  
SIGNIFICANT WEATHER AND/OR S TO VISIBILITY
.  
 
* = STATION THAT DOES NOT REPORT PRECIPITATION /E.G. RAIN...SNOW...ETC/  
THUNDER OR FOG.
 
 
PAZ002>004-007>009-013>016-020>023-029>032-170400-  
WESTERN PENNSYLVANIA  
 
CITY SKY/WX TMP DP RH WIND PRES REMARKS
 
ERIE FAIR 48 34 58 S16G24 30.00S  
MEADVILLE FAIR 42 35 76 SW10 30.03R  
FRANKLIN* FAIR 41 34 76 SW12 30.04S  
NEW CASTLE FAIR 43 35 73 SW5 30.08S  
BEAVER COUNTY NOT AVBL  
BUTLER* FAIR 42 35 76 SW7 30.08S  
PITTSBURGH INT MOCLDY 44 35 70 SW7 30.08F  
PITTSBURGH FAIR 43 35 73 SW9 30.09R  
INDIANA* CLEAR 39 36 87 SW7 30.12S  
LATROBE FAIR 43 39 87 S5 30.10F  
WASHINGTON CO* FAIR 44 37 76 SW6 30.13S  

 
 
PAZ004>006-010>012-017>019-024>028-033>037-041-042-045-046-049>053-170400-  
CENTRAL PENNSYLVANIA  
 
CITY SKY/WX TMP DP RH WIND PRES REMARKS
 
BRADFORD FAIR 40 30 67 SW8 30.00F  
DUBOIS FAIR 40 31 70 SW12 30.03F  
CLEARFIELD FAIR 39 33 79 SW7 30.06S  
JOHNSTOWN FAIR 42 35 76 SW15 30.06S  
ALTOONA FAIR 47 34 60 SW10 30.08S  
STATE COLLEGE FAIR 40 33 76 SW7 30.06S  
WILLIAMSPORT FAIR 41 37 86 CALM 30.05R  
SELINSGROVE FAIR 40 39 97 CALM 30.08S  
FT INDIANTOWN NOT AVBL  
CAPITAL CITY FAIR 49 40 71 W5 30.09R  
HARRISBURG CLOUDY 50 40 68 W5 30.08R  
YORK FAIR 48 42 80 CALM 30.08F  

 
 
PAZ038>040-043-044-047-048-054-055-060>062-067>071-170400-  
EASTERN PENNSYLVANIA  
 
CITY SKY/WX TMP DP RH WIND PRES REMARKS
 
SCRANTON FAIR 42 37 82 SW3 30.04S  
MOUNT POCONO FAIR 39 34 82 W9 30.01F  
ALLENTOWN FAIR 45 39 79 CALM 30.07S  
QUAKERTOWN* CLEAR 43 41 93 CALM 30.08S  
READING FAIR 46 43 89 CALM 30.07R  
LANCASTER FAIR 48 42 80 CALM 30.09R  
COATESVILLE FAIR 48 41 76 VRB3 30.10S  
POTTSTOWN FAIR 46 39 76 SW5 30.10S  
BLUE BELL FAIR 43 43 100 CALM 30.10S  
DOYLESTOWN FAIR 44 40 85 CALM 30.07F  
WILLOW GROVE NOT AVBL  
NORTH PHILA FAIR 50 42 74 CALM 30.10F  
PHILADELPHIA CLOUDY 54 40 59 SW10 30.10S  

 
 
 
CLICK HERE TO GO TO PREVIOUS BULLETINS.

The Nexlab PA Page Main Text Page